Date,TemperatureHighF,TemperatureAvgF,TemperatureLowF,DewpointHighF,DewpointAvgF,DewpointLowF,HumidityHigh,HumidityAvg,HumidityLow,PressureMaxIn,PressureMinIn,WindSpeedMaxMPH,WindSpeedAvgMPH,GustSpeedMaxMPH,PrecipitationSumIn
2013-3-1,34,31,27,29,23,15,88,74,61,30.03,29.90,4,0,4,0.00
2013-3-2,30,27,24,21,17,14,73,66,61,30.04,29.97,8,0,8,0.00
2013-3-3,28,24,21,16,13,9,74,64,51,30.08,30.01,6,0,6,0.00
2013-3-4,51,30,17,19,10,-2,69,47,19,30.18,30.06,21,0,21,0.00
2013-3-5,42,35,30,25,21,12,73,55,42,30.09,29.53,3,0,3,0.00
2013-3-6,41,35,31,32,27,25,80,75,66,30.19,29.52,5,0,5,0.00
2013-3-7,49,35,30,30,25,23,77,67,44,30.33,30.17,7,0,7,0.00
2013-3-8,58,39,27,29,21,16,70,52,27,30.46,30.33,21,0,21,0.00
2013-3-9,72,44,26,31,22,14,67,45,19,30.41,30.10,5,0,5,0.00
2013-3-10,78,59,47,32,26,22,43,30,19,30.12,29.90,9,1,9,0.00
2013-3-11,61,54,42,48,34,26,85,52,27,29.91,29.65,11,1,11,0.00
2013-3-12,42,36,33,34,27,24,78,69,60,30.03,29.81,21,1,21,0.00
2013-3-13,33,30,26,27,20,12,83,68,51,30.24,29.97,12,2,12,0.00
2013-3-14,48,36,23,15,9,0,57,36,19,30.26,30.16,10,1,10,0.00
2013-3-15,54,40,28,35,22,10,72,49,40,30.16,29.86,21,0,21,0.00
2013-3-16,59,45,35,48,38,27,87,76,61,30.01,29.62,10,1,10,0.00
2013-3-17,40,35,32,27,24,22,73,65,55,30.18,30.01,3,0,3,0.00
2013-3-18,51,40,33,49,36,22,98,83,61,30.07,29.64,10,1,10,0.00
2013-3-19,42,37,31,39,18,-4,89,51,19,30.04,29.77,17,3,17,0.00
2013-3-20,41,32,22,16,7,-7,48,36,19,30.04,29.89,15,2,15,0.00
2013-3-21,30,25,19,12,7,0,55,46,31,30.00,29.94,9,1,9,0.00
2013-3-22,50,32,19,17,8,-3,61,39,19,30.06,29.97,9,1,9,0.00
2013-3-23,60,39,25,21,10,-2,56,33,19,30.08,29.96,6,0,6,0.00
2013-3-24,40,34,30,27,19,11,76,56,38,29.97,29.45,6,0,6,0.00
2013-3-25,35,33,31,30,28,26,88,82,74,29.85,29.42,21,1,21,0.00
2013-3-26,44,35,31,31,26,18,88,72,46,30.16,29.85,9,1,9,0.00
2013-3-27,44,36,31,28,22,17,78,59,40,30.25,30.15,9,1,9,0.00
2013-3-28,52,39,27,24,20,17,66,49,32,30.30,30.23,14,1,14,0.00
2013-3-29,60,43,29,28,21,16,66,44,23,30.31,30.18,8,0,8,0.00
2013-3-30,68,48,32,29,19,7,64,36,19,30.26,29.97,6,0,6,0.00
2013-3-31,53,47,43,44,30,5,77,54,19,29.98,29.76,21,0,21,0.00